Regional Weather Roundup
Issued by NWS Midland/Odessa, TX

Skip options and go directly to product.
Home | Oldest Version | Previous Version | Current Version | All | Text Only | Save Text | Print | Product List | Glossary On

Skip product version selection by date and time.   
167
ASUS44 KMAF 100110
RWRMAF
MIDLAND AREA WEATHER ROUNDUP
NATIONAL WEATHER SERVICE MIDLAND TX
700 PM CST FRI DEC 09 2016

...IN SOUTHWEST TEXAS AND SOUTHEAST NEW MEXICO...

CITY           SKY/WX    TMP DP  RH WIND       PRES   REMARKS
ALPINE         CLEAR     42  34  73 SW14      30.35S WCI  35
ANDREWS        FAIR      37  32  82 S3        30.28S
ARTESIA        CLOUDY    32  32 100 CALM      30.25S
BIG SPRING     CLEAR     37  31  79 SE6       30.33S WCI  33
CARLSBAD       CLEAR     38  36  92 SE6       30.24S WCI  33
DRYDEN           N/A     39  32  76 SE5       30.36R WCI  36
FORT STOCKTON  CLEAR     41  35  79 NE5       30.28S WCI  38
GUAD PASS      NOT AVBL
HOBBS          CLEAR     34  34 100 S7        30.25F WCI  28
MARFA          CLEAR     36  32  85 SE6       30.34R WCI  31
MIDLAND AIRPK  CLEAR     42  34  73 S6        30.30R WCI  38
MIDLAND INTL   CLEAR     39  31  72 SE7       30.29S WCI  34
ODESSA         CLEAR     40  31  70 S6        30.29S WCI  36
PECOS          CLEAR     40  36  84 E5        30.28R WCI  37
PRESIDIO       FAIR      44  34  67 CALM      30.34R
SEMINOLE       CLEAR     33  30  88 CALM      30.28R
SNYDER         CLEAR     34  27  76 E7        30.35R WCI  28
WINK           CLEAR     38  34  85 SE6       30.27R WCI  33
$$
...OTHER STATIONS IN TEXAS...

CITY           SKY/WX    TMP DP  RH WIND       PRES   REMARKS
ABILENE        CLEAR     34  24  67 SE10      30.40R WCI  26
AMARILLO       CLOUDY    33  28  81 SE14      30.22R WCI  23
AUSTIN         MOCLDY    44  23  43 NE3       30.50R
BROWNSVILLE    CLOUDY    45  34  65 NW15      30.46S WCI  38
CORPUS CHRISTI CLOUDY    48  30  49 NE8       30.49F
DALLAS FTW     PTCLDY    35  17  47 SE6       30.50R WCI  30
DEL RIO        CLEAR     41  31  67 SE6       30.44S WCI  37
EL PASO        PTCLDY    44  31  60 N3        30.29S
HOUSTON INT    CLOUDY    47  28  47 N7        30.51S
LUBBOCK        PTCLDY    34  28  79 S12       30.25F WCI  25
SAN ANGELO     CLOUDY    45  28  51 S7        30.37R
SAN ANTONIO    PTCLDY    41  23  48 NE5       30.50R WCI  38
WACO           PTCLDY    39  23  52 SE6       30.50F WCI  35
WICHITA FALLS  NOT AVBL
$$
...OTHER LOCATIONS IN NEW MEXICO...

CITY           SKY/WX    TMP DP  RH WIND       PRES   REMARKS
ALAMAGORDO     NOT AVBL
ALBUQUERQUE    CLOUDY    43  27  53 SW5       30.29R
CANNON AFB     CLOUDY    34  29  83 SW7       30.18S WCI  28
CLOVIS         CLOUDY    36  27  69 SW13      30.17F WCI  27
HOLLOMAN AFB   CLOUDY    37  25  61 N6        30.34R WCI  32
ROSWELL        CLOUDY    31  27  85 S5        30.24S WCI  26
RUIDOSO        CLOUDY    37  25  60 W5        30.30S WCI  34
SANTA FE       CLOUDY    36  23  59 W7        30.27R WCI  30
TRUTH OR CONSE PTCLDY    45  29  53 CALM      30.27S
TUCUMCARI      CLOUDY    43  29  57 SW12      30.12R WCI  37
$$

  • National Weather Service
  • Southern Region Headquarters
  • 819 Taylor Street, Room 10A06
  • Fort Worth, TX 76102
  • Page Author: NWS Fort Worth
  • Web Master: SR-SRH.Webmaster@noaa.gov
  •  
  • Page last modified: 30-Sep-2016 6:36 PM UTC
USA.gov is the U.S. government's official web portal to all federal, state and local government web resources and services.